Sheringham Point, British Columbia

1:58 AM PDT on July 21, 2017 (GMT -0700)
Sheringham Point

Weather History for CWSP - April, 2014

Change the Weather History Date:

Thursday, April 24, 2014

  Actual Average Record
Temperature  
Mean Temperature 48 °F -  
Max Temperature 50 °F - - ()
Min Temperature 46 °F - - ()
Degree Days  
Heating Degree Days 17    
Moisture  
Dew Point 43 °F    
Average Humidity 82    
Maximum Humidity 92    
Minimum Humidity 68    
Precipitation  
Precipitation 0.12 in - - ()
Sea Level Pressure  
Sea Level Pressure 29.72 in    
Wind  
Wind Speed 9 mph ()    
Max Wind Speed 22 mph    
Max Gust Speed 22 mph    
T = Trace of Precipitation, MM = Missing Value Source: Averaged Metar Reports

Daily Weather History Graph

Daily Weather History Graph

Search for Another Location

Airport or City:

Trip Planner

Search our weather history database for the weather conditions in past years. The results will help you decide how hot, cold, wet, or windy it might be!

Date:

Astronomy

Apr. 24, 2014 Rise Set
Actual Time 6:08 AM PDT 8:20 PM PDT
Civil Twilight 5:34 AM PDT 8:54 PM PDT
Nautical Twilight 4:52 AM PDT 9:36 PM PDT
Astronomical Twilight 4:04 AM PDT 10:25 PM PDT
Moon 3:47 AM PDT (4/24) 3:20 PM PDT (4/24)
Length of Visible Light 15h 19m
Length of Day
14h 11m
Waning Crescent, 23% of the Moon is Illuminated
Apr 24
Waning Crescent
Apr 28
New
May 6
First Quarter
May 14
Full
May 21
Last Quarter

Hourly Weather History & Observations

Time (PDT) Temp. Dew Point Humidity Pressure Visibility Wind Dir Wind Speed Gust Speed Precip Events Conditions
2:00 AM 47.7 °F 45.3 °F 92% 29.52 in - East 10.4 mph - 0.02 in   Unknown
3:00 AM 48.6 °F 46.0 °F 91% 29.52 in - NE 5.8 mph - 0.02 in   Unknown
4:00 AM 48.2 °F 45.9 °F 92% 29.52 in - Calm Calm - N/A   Unknown
5:00 AM 49 °F 46 °F 87% 29.55 in - West 17.3 mph - -  
5:00 AM 48.9 °F 46.4 °F 91% 29.55 in - West 17.3 mph - 0.02 in   Unknown
6:00 AM 48.0 °F 45.7 °F 92% 29.57 in - West 21.9 mph - N/A   Unknown
7:00 AM 48.2 °F 44.2 °F 86% 29.60 in - WNW 10.4 mph - N/A   Unknown
8:00 AM 48.6 °F 41.9 °F 78% 29.61 in - WNW 11.5 mph - N/A   Unknown
9:00 AM 48.7 °F 44.1 °F 84% 29.64 in - NW 6.9 mph - N/A   Unknown
10:00 AM 48.4 °F 43.9 °F 84% 29.68 in - West 12.7 mph - 0.01 in   Unknown
11:00 AM 48 °F 44 °F 83% 29.71 in - West 8.1 mph - -  
11:00 AM 48.0 °F 44.4 °F 87% 29.71 in - West 8.1 mph - N/A   Unknown
12:00 PM 48.4 °F 45.1 °F 89% 29.74 in - WNW 12.7 mph - 0.01 in   Unknown
1:00 PM 47.7 °F 41.9 °F 80% 29.77 in - WNW 16.1 mph - 0.01 in   Unknown
2:00 PM 48.4 °F 43.5 °F 83% 29.78 in - West 15.0 mph - N/A   Unknown
3:00 PM 48.6 °F 43.2 °F 82% 29.81 in - West 11.5 mph - 0.01 in   Unknown
4:00 PM 49.5 °F 43.0 °F 78% 29.81 in - West 16.1 mph - N/A   Unknown
5:00 PM 49 °F 43 °F 71% 29.83 in - West 12.7 mph - -  
5:00 PM 48.6 °F 42.6 °F 80% 29.83 in - West 12.7 mph - N/A   Unknown
6:00 PM 50.0 °F 41.4 °F 72% 29.83 in - WNW 16.1 mph 21.9 mph N/A   Unknown
7:00 PM 48.7 °F 42.3 °F 78% 29.84 in - WNW 9.2 mph - N/A   Unknown
8:00 PM 47.5 °F 42.1 °F 82% 29.86 in - WNW 10.4 mph - N/A   Unknown
9:00 PM 47.1 °F 41.4 °F 80% 29.86 in - NW 5.8 mph - N/A   Unknown
10:00 PM 46.9 °F 40.3 °F 78% 29.87 in - NW 3.5 mph - N/A   Unknown
11:00 PM 47 °F 40 °F 68% 29.88 in - WNW 2.3 mph - -  
11:00 PM 46.6 °F 39.7 °F 77% 29.88 in - WNW 2.3 mph - N/A   Unknown